[[{"header":{"parameterUnit":"m.s-1","parameterCategory":1,"la1":30.2991,"la2":30.254,"lo1":-89.0895,"lo2":-89.0444,"dy":0.0017,"dx":0.0017,"nx":28,"ny":28,"refTime":"2025-01-22T03:00:00:Z","depth":0,"parameterNumber":2,"parameterNumberName":"U-component_of_WINDS"},"data":[0,0,0,0,0,0,0,0,0,0,0,0,0,0,0,0,0,0,0,0,0,0,0,0,0,0,0,0,0,0,0,0,0,0,0,0,0,0,0,0,0,0,0,0,0,0,0,0,0,0,0,0,0,0,0,0,0,0,0.3285,0.3285,0,0.3222,0.3222,0.3221,0.3225,0.3226,0.3227,0.3228,0.3161,0.3159,0.3156,0,0,0,0,0,0,0,0,0,0,0,0,0,0.3409,0.3407,0.3286,0.3285,0.3284,0.3223,0.3222,0.3221,0.3225,0.3226,0.3227,0.3228,0.3162,0.3159,0.3156,0,0,0,0,0,0,0,0,0,0,0,0,0,0.3352,0.3406,0.3286,0.3279,0.3277,0.3223,0.3222,0.3221,0.3225,0.3226,0.3227,0.3229,0.3163,0.3159,0.3155,0.3103,0,0,0.3143,0.3142,0,0,0,0,0,0,0,0,0.3355,0.3347,0.328,0.3279,0.3277,0.3233,0.3241,0.3181,0.3224,0.3245,0.3228,0.3229,0.3184,0.3178,0.3163,0.31,0.3097,0.3143,0.3141,0.3139,0.3138,0,0,0,0,0,0,0,0.3359,0.335,0.3261,0.3279,0.3278,0.3278,0.3272,0.323,0.3207,0.3243,0.3243,0.3236,0.3183,0.3167,0.3162,0.3096,0.3143,0.314,0.3137,0.3136,0.2988,0.2986,0,0,0,0,0,0,0.3365,0.3353,0.3263,0.3259,0.332,0.3275,0.3268,0.3246,0.3208,0.3203,0.3234,0.3236,0.3173,0.3166,0.3159,0.3096,0.3139,0.3135,0.3133,0.2989,0.2987,0.2986,0,0,0,0,0,0,0.3367,0.3356,0.3265,0.3306,0.3294,0.3271,0.3247,0.3244,0.3228,0.3201,0.3197,0.3222,0.3174,0.3165,0.3117,0.3093,0.3133,0.313,0.2991,0.2989,0.2986,0.2967,0,0,0,0,0,0,0.3371,0.3357,0.3337,0.3305,0.3292,0.3224,0.3245,0.3242,0.3221,0.3222,0.3188,0.3184,0.3174,0.3123,0.3113,0.3089,0.3127,0.2993,0.299,0.2987,0.297,0.2965,0.296,0,0,0,0,0,0.3375,0.3334,0.3336,0.3325,0.3266,0.3223,0.3215,0.3205,0.3219,0.3198,0.3182,0.3185,0.3098,0.3118,0.3107,0.3081,0.2994,0.2991,0.2987,0.2972,0.2966,0.296,0,0,0,0,0,0,0.3362,0.3329,0.3331,0.3279,0.3254,0.3223,0.3197,0.3198,0.3168,0.317,0.3159,0.3152,0.3104,0.3088,0.3111,0.3029,0.3048,0.3042,0.304,0.3034,0.3029,0.3033,0.3123,0,0,0,0,0,0.3353,0.3321,0.3294,0.325,0.3237,0.3219,0.32,0.3195,0.3168,0.3157,0.3137,0.311,0.3077,0.3055,0.3023,0.2969,0.2961,0.2945,0.2941,0.2937,0.2931,0.2901,0.2894,0.2974,0.2974,0.2974,0,0,0.3334,0.3312,0.3292,0.3247,0.3227,0.3193,0.321,0.3174,0.3148,0.3151,0.3105,0.3089,0.3059,0.3008,0.2985,0.2993,0.2908,0.2932,0.2929,0.2926,0.2897,0.2889,0.2883,0.2972,0.2972,0.2973,0,0,0.3282,0.3263,0.3224,0.3204,0.3173,0.3162,0.3153,0.3123,0.3113,0.3067,0.3068,0.3039,0.2981,0.296,0.2941,0.2884,0.2885,0.2874,0.2847,0.2818,0.2812,0.2806,0.2785,0.2778,0.2869,0.2869,0.2869,0,0.3261,0.3211,0.3203,0.3167,0.3147,0.315,0.311,0.3091,0.3051,0.3037,0.3049,0.2978,0.2958,0.2902,0.2888,0.2873,0.2862,0.2876,0.2814,0.2808,0.2802,0.2782,0.2774,0.2867,0.2868,0.2868,0.2868,0,0.3187,0.3152,0.3125,0.3087,0.3065,0.3027,0.3014,0.2992,0.2989,0.2977,0.293,0.2907,0.287,0.2857,0.2854,0.2801,0.2807,0.2816,0.2835,0.2794,0.2774,0.2766,0.2865,0.2866,0.2866,0.2867,0,0,0.3122,0.3083,0.3073,0.3056,0.3024,0.2997,0.296,0.2925,0.2906,0.288,0.2848,0.2801,0.2809,0.2788,0.2783,0.2758,0.2714,0.277,0.277,0.276,0.2653,0.2646,0.2637,0.2716,0.2715,0.2713,0.2656,0,0.3065,0.2999,0.2993,0.2934,0.2901,0.2905,0.2873,0.2849,0.2838,0.2809,0.2796,0.2762,0.2776,0.2764,0.274,0.2724,0.2692,0.2729,0.2685,0.2684,0.2691,0.2627,0.2618,0.2564,0.2648,0.2647,0.2646,0,0.299,0.2962,0.29,0.2873,0.2859,0.283,0.2798,0.2771,0.2745,0.2739,0.2717,0.2715,0.2677,0.27,0.2647,0.2672,0.2655,0.2645,0.2642,0.2636,0.2661,0.2617,0.2547,0.2538,0.2634,0.2635,0.2636,0,0.2947,0.2894,0.285,0.2836,0.2805,0.2784,0.277,0.2746,0.2726,0.2698,0.2685,0.2653,0.2635,0.2611,0.2601,0.2619,0.2549,0.2571,0.2542,0.2542,0.2525,0.2525,0.2449,0.2517,0.2517,0.2517,0.2517,0,0.2883,0.2845,0.2831,0.2803,0.2761,0.2754,0.2712,0.2699,0.2678,0.2648,0.265,0.2622,0.2612,0.2583,0.2576,0.2533,0.2525,0.2518,0.2516,0.2517,0.2518,0.2503,0.2506,0.2515,0.2515,0.2516,0.2516,0,0.2827,0.2816,0.2768,0.2743,0.2736,0.2706,0.2684,0.2658,0.2648,0.261,0.2601,0.2585,0.255,0.2539,0.2498,0.2493,0.2443,0.2445,0.2451,0.245,0.2422,0.2424,0.2332,0.2319,0.2397,0.2396,0.2395,0,0.2786,0.2756,0.2729,0.2709,0.2694,0.2663,0.2643,0.2636,0.2615,0.2585,0.2562,0.2529,0.2501,0.2446,0.2431,0.2399,0.24,0.237,0.2395,0.2396,0.2398,0.2399,0.2396,0.2364,0.2363,0.2363,0.2362,0,0.2714,0.271,0.2681,0.2651,0.2627,0.2603,0.2579,0.2563,0.2553,0.253,0.2495,0.2474,0.2432,0.2399,0.2367,0.2352,0.2355,0.2355,0.2346,0.2346,0.235,0.2346,0.2437,0.2356,0.2357,0.2357,0.2358,0.2358,0.2663,0.2637,0.2614,0.2582,0.2564,0.2542,0.2516,0.2504,0.2475,0.2441,0.2439,0.2401,0.2378,0.2336,0.232,0.2291,0.2299,0.2287,0.2284,0.228,0.2278,0.2357,0.2285,0.2286,0.2286,0.2286,0.2286,0,0.259,0.2575,0.2546,0.2514,0.2489,0.2496,0.2471,0.2449,0.2416,0.2395,0.2368,0.2329,0.2297,0.228,0.2248,0.2228,0.2228,0.222,0.222,0.2216,0.2272,0.2282,0.222,0.222,0.222,0.222,0.222,0.222,0.2548,0.2505,0.25,0.2448,0.2434,0.2398,0.2383,0.2363,0.2346,0.2302,0.2275,0.2265,0.2245,0.2213,0.2184,0.218,0.2167,0.2157,0.2154,0.2206,0.2212,0.2219,0.2228,0.2155,0.2155,0.21,0.21,0.2099]},{"header":{"parameterUnit":"m.s-1","parameterCategory":1,"la1":30.2991,"la2":30.254,"lo1":-89.0895,"lo2":-89.0444,"dy":0.0017,"dx":0.0017,"nx":28,"ny":28,"refTime":"2025-01-22T03:00:00:Z","depth":0,"parameterNumber":3,"parameterNumberName":"V-component_of_WINDS"},"data":[0,0,0,0,0,0,0,0,0,0,0,0,0,0,0,0,0,0,0,0,0,0,0,0,0,0,0,0,0,0,0,0,0,0,0,0,0,0,0,0,0,0,0,0,0,0,0,0,0,0,0,0,0,0,0,0,0,0,-7.8534,-7.8536,0,-7.8739,-7.8741,-7.8744,-7.8645,-7.864,-7.8635,-7.863,-7.8833,-7.8843,-7.8853,0,0,0,0,0,0,0,0,0,0,0,0,0,-7.805,-7.8059,-7.8534,-7.8536,-7.8539,-7.8739,-7.8741,-7.8744,-7.8646,-7.864,-7.8633,-7.8627,-7.883,-7.8842,-7.8854,0,0,0,0,0,0,0,0,0,0,0,0,0,-7.8258,-7.8063,-7.8533,-7.8514,-7.8514,-7.8738,-7.8741,-7.8745,-7.8647,-7.8639,-7.8632,-7.8624,-7.8826,-7.8841,-7.8856,-7.9109,0,0,-7.8903,-7.891,0,0,0,0,0,0,0,0,-7.8246,-7.8276,-7.8514,-7.8516,-7.8517,-7.8659,-7.8645,-7.8867,-7.8649,-7.8597,-7.8629,-7.862,-7.8781,-7.88,-7.8855,-7.9118,-7.9127,-7.8905,-7.8914,-7.8921,-7.8925,0,0,0,0,0,0,0,-7.8232,-7.8266,-7.8615,-7.8518,-7.8519,-7.8493,-7.8514,-7.8687,-7.873,-7.8601,-7.8594,-7.862,-7.878,-7.8841,-7.8859,-7.913,-7.8904,-7.8918,-7.8927,-7.8934,-7.9608,-7.9616,0,0,0,0,0,0,-7.8219,-7.8255,-7.8608,-7.8621,-7.836,-7.8508,-7.8531,-7.8621,-7.8728,-7.8737,-7.8626,-7.8615,-7.8818,-7.8841,-7.8866,-7.9168,-7.8921,-7.8935,-7.8944,-7.9599,-7.961,-7.9619,0,0,0,0,0,0,-7.8209,-7.8252,-7.86,-7.8436,-7.8479,-7.8525,-7.8626,-7.8629,-7.8689,-7.8748,-7.8754,-7.8681,-7.8813,-7.8844,-7.9049,-7.9173,-7.8942,-7.8956,-7.9589,-7.9602,-7.9614,-7.9774,0,0,0,0,0,0,-7.8196,-7.8249,-7.8347,-7.8439,-7.8488,-7.8782,-7.8634,-7.8639,-7.8717,-7.8704,-7.88,-7.8809,-7.8809,-7.9027,-7.9064,-7.9191,-7.8968,-7.9578,-7.9595,-7.961,-7.9758,-7.9791,-7.9819,0,0,0,0,0,-7.8179,-7.8383,-7.8353,-7.8396,-7.8612,-7.879,-7.8817,-7.8815,-7.8728,-7.8825,-7.8862,-7.8806,-7.9154,-7.9048,-7.909,-7.9223,-7.957,-7.959,-7.9609,-7.9744,-7.9785,-7.9819,0,0,0,0,0,0,-7.8302,-7.8395,-7.8362,-7.8603,-7.8689,-7.8773,-7.8897,-7.8858,-7.897,-7.8952,-7.8943,-7.8965,-7.9178,-7.922,-7.9101,-7.9472,-7.9348,-7.9377,-7.9437,-7.9475,-7.9505,-7.9491,-7.8981,0,0,0,0,0,-7.8358,-7.8497,-7.8569,-7.8774,-7.8819,-7.8851,-7.8928,-7.8919,-7.9007,-7.9043,-7.9095,-7.9181,-7.931,-7.9395,-7.9516,-7.9763,-7.9782,-7.9875,-7.9905,-7.993,-7.9955,-8.0087,-8.0129,-7.9683,-7.9683,-7.9682,0,0,-7.8473,-7.8541,-7.8629,-7.88,-7.8866,-7.9008,-7.8882,-7.9038,-7.9142,-7.9066,-7.9263,-7.9304,-7.9399,-7.9626,-7.9729,-7.9668,-8.0083,-7.9955,-7.9974,-7.9986,-8.0112,-8.0154,-8.0192,-7.9696,-7.9694,-7.9692,0,0,-7.8756,-7.8822,-7.9,-7.9069,-7.9171,-7.919,-7.9233,-7.9323,-7.9348,-7.9546,-7.9491,-7.9613,-7.9836,-7.9906,-7.997,-8.0278,-8.023,-8.0318,-8.0478,-8.0607,-8.0642,-8.0673,-8.0782,-8.0822,-8.0342,-8.0343,-8.0343,0,-7.8886,-7.91,-7.9095,-7.9256,-7.9332,-7.9271,-7.9449,-7.9515,-7.9652,-7.9704,-7.9635,-7.9912,-7.9972,-8.0214,-8.0289,-8.0343,-8.039,-8.0307,-8.0638,-8.0669,-8.0698,-8.0802,-8.0843,-8.0353,-8.0352,-8.0351,-8.035,0,-7.9255,-7.9403,-7.9534,-7.9669,-7.976,-7.9928,-7.9947,-8.0038,-8.0021,-8.0047,-8.0248,-8.0317,-8.0452,-8.0508,-8.0492,-8.0747,-8.0707,-8.0638,-8.0514,-8.0751,-8.0848,-8.0888,-8.0367,-8.0364,-8.0361,-8.0358,0,0,-7.9623,-7.9752,-7.98,-7.986,-7.9968,-8.0082,-8.0246,-8.0379,-8.0457,-8.0552,-8.0689,-8.0878,-8.0815,-8.0888,-8.0879,-8.0992,-8.123,-8.0909,-8.0911,-8.0966,-8.1515,-8.1566,-8.1612,-8.1198,-8.1206,-8.1212,-8.1507,0,-7.9913,-8.0204,-8.0203,-8.0471,-8.0607,-8.055,-8.0693,-8.0773,-8.0801,-8.0919,-8.0948,-8.1083,-8.099,-8.1033,-8.1143,-8.1178,-8.134,-8.1157,-8.1323,-8.1329,-8.1302,-8.1663,-8.1718,-8.1993,-8.1545,-8.1551,-8.1556,0,-8.0291,-8.0401,-8.0683,-8.077,-8.0826,-8.0956,-8.1076,-8.1191,-8.1279,-8.1291,-8.1373,-8.1346,-8.151,-8.1381,-8.1606,-8.1481,-8.1549,-8.1576,-8.1587,-8.1602,-8.1457,-8.1688,-8.2081,-8.2122,-8.1616,-8.1611,-8.1607,0,-8.0531,-8.0748,-8.0945,-8.0998,-8.1104,-8.1196,-8.1244,-8.1325,-8.1404,-8.1509,-8.156,-8.1682,-8.1749,-8.1842,-8.1848,-8.1753,-8.2075,-8.1946,-8.2088,-8.2088,-8.2159,-8.2154,-8.2567,-8.2202,-8.2202,-8.2201,-8.22,0,-8.0856,-8.103,-8.1054,-8.1175,-8.1368,-8.1364,-8.1554,-8.1593,-8.1666,-8.1791,-8.1748,-8.1866,-8.1866,-8.1986,-8.1991,-8.2176,-8.2206,-8.2219,-8.2218,-8.2224,-8.2222,-8.2268,-8.2249,-8.2212,-8.2209,-8.2207,-8.2205,0,-8.1157,-8.118,-8.139,-8.1474,-8.1498,-8.1637,-8.1707,-8.1821,-8.1844,-8.2003,-8.204,-8.2077,-8.2215,-8.223,-8.2391,-8.2393,-8.2617,-8.2596,-8.2588,-8.2585,-8.2726,-8.2712,-8.3183,-8.3244,-8.284,-8.2843,-8.2847,0,-8.1363,-8.1496,-8.1594,-8.1676,-8.173,-8.1862,-8.1943,-8.1944,-8.2029,-8.214,-8.224,-8.2374,-8.2482,-8.2706,-8.2745,-8.2867,-8.2848,-8.3004,-8.2866,-8.2867,-8.285,-8.2842,-8.2855,-8.3031,-8.3036,-8.304,-8.3042,0,-8.1726,-8.1731,-8.1851,-8.1975,-8.2074,-8.2171,-8.2262,-8.233,-8.2341,-8.244,-8.2582,-8.2666,-8.283,-8.2964,-8.3084,-8.313,-8.3088,-8.3086,-8.3125,-8.3132,-8.3122,-8.3129,-8.2661,-8.3075,-8.3072,-8.3069,-8.3068,-8.3066,-8.1986,-8.2101,-8.2188,-8.2322,-8.2391,-8.2477,-8.2588,-8.2625,-8.2745,-8.288,-8.2872,-8.3029,-8.3111,-8.3268,-8.3323,-8.3444,-8.3391,-8.3449,-8.3463,-8.3477,-8.3491,-8.3103,-8.3466,-8.3465,-8.3464,-8.3463,-8.3462,0,-8.2346,-8.2399,-8.2523,-8.2653,-8.2758,-8.2711,-8.2808,-8.2899,-8.3038,-8.312,-8.3227,-8.3389,-8.3518,-8.3568,-8.3693,-8.378,-8.3764,-8.3813,-8.3806,-8.3817,-8.3531,-8.3485,-8.3824,-8.3824,-8.3823,-8.3823,-8.3823,-8.3823,-8.2547,-8.2739,-8.2754,-8.2978,-8.3029,-8.3184,-8.3244,-8.3322,-8.3387,-8.3571,-8.3679,-8.371,-8.3778,-8.3908,-8.4023,-8.4034,-8.4082,-8.4139,-8.4142,-8.3874,-8.3838,-8.3803,-8.3759,-8.415,-8.415,-8.4417,-8.442,-8.4422]}]]